THOR BURNER 2 R/B, 2741

Orbit data source: Space-Track

THOR BURNER 2 R/B, 2741 is space debris in SSO originally from a launch on Wed, 08 Feb 1967 UTC launched from the Air Force Western Test Range (AFWTR). Debris objects in space refer to the collection of defunct objects orbiting the Earth. Examples of debris include non-operational satellites, rocket bodies, and fragments generated from explosions, collisions, or faulty payload assembly.

Loading next visibility...
THOR BURNER 2 R/B details
Identifier
2741, 1967-010B
Orbit
SSO
Last TLE update21 hours ago
Origin
Flag of USUSAF SSD (US)
ManufacturerThiokol/TE
MissionSpacecraft
Bus & MotorSTAR 37, Unknown motor
Mass136 kg wet, 136 kg dry
Launch date (UTC)
1967-02-08 (58 years ago)
Launch vehicleUnknown
Launch site
Air Force Western Test Range (AFWTR)
Object type
Payload
Rocket body
Debris
Shape & HBRSphere + Cone + 1 Truss, 1.7 m
Radar Cross Section2.270 m², Large (>1 m²)

Expand to show TLE details & history

TLE from 21 hours ago
0 THOR BURNER 2 R/B
1 02741U 67010B   24355.82163571  .00000491  00000-0  20974-3 0  9999
2 02741  98.9177 284.7770 0053796  63.4463 297.2217 14.28840001  7665
Epoch: 2024-12-20T19:43Z
Definitive object data (Epoch: 2024-12-20T19:43:09.325Z)
Latitude-0.00012°
Longitude-100.89348°
Altitude781.039 km
Speed7.472 km/s
True Right ascension18h 59m 06s
True Declination0° 00' 00"
Sunlit
Object was in daylight at TLE epoch
Visualization TLE readout
Latitude81.045°
Longitude162.0613°
Altitude775.625 km
Speed7.491 km/s
Apparent Right ascension04h 02m 53s
Apparent Declination35° 39' 46"
Sunlit
Object is in daylight
Visualization observer readout
Local Sidereal Time15:20:55
Azimuth351.239° N
Elevation-13.806°
Doppler factor1
Orbital elements
Apogee altitude831.344 km
Perigee altitude754.191 km
Semi-major axis7,170.905 km
Eccentricity0.0053796
Inclination98.9177°
RAAN284.777°
Arg. of periapsis63.4463°
True anomaly296.67184°
Mean anomaly297.2217°
Eccentric anomaly296.94694°
Mean motion3.57423 °/min
BSTAR0.00020974
Orbital period100.72 mins
Loading maneuver chart data...
Loading historical data...
Loading historical data...
Loading historical data...
Loading historical data...
Loading historical data...
Loading historical data...
Loading historical data...
Other satellites on launch #10 in the year 1967 (1967-02-08 UTC)

THOR BURNER 2 R/B Visibility forecast

Observer location: undefined°, undefined

Span
Click to sort rows by Start time (UTC) header in descending order
Start Az.
Max El. time (UTC)
Max El. Az.
Max El.
End time (UTC)
End Az.
9 mins2024-12-21 19:21:29.537Z161.696° S2024-12-21 19:26:29.537Z16.033° NNE44.232°2024-12-21 19:30:29.537Z348.151° N
7 mins2024-12-22 07:37:29.537Z53.04° ENE2024-12-22 07:39:29.537Z86.409° E26.231°2024-12-22 07:44:29.537Z157.622° S
7 mins2024-12-22 09:16:29.537Z342.697° N2024-12-22 09:19:29.537Z292.04° WNW27.746°2024-12-22 09:23:29.537Z234.302° WSW
|